Location: Newark
(35.6799°N, 139.7636°E)
Time: 01:47:37
(UTC+00:00)

Explorer 7 - Pass Details

Date: 09 December 2019
Orbit: 485 x 679 km, 50.3° (Epoch: 28 January)

Event Time Altitude Azimuth Distance (km) Brightness Sun altitude
Rises 15:10:28 0° 288° (WNW) 2,932 - -74.8°
Reaches altitude 10° 15:14:19 10° 257° (WSW) 1,970 - -74.4°
Maximum altitude 15:15:55 12° 236° (SW) 1,835 - -74.2°
Drops below altitude 10° 15:17:28 10° 215° (SW) 1,921 - -74.0°
Sets 15:21:07 0° 183° (S) 2,760 - -73.5°
